Regional Weather Roundup
Issued by NWS Northern Indiana

Home | Current Version | Previous Version | Graphics & Text | Print | Product List | Glossary On
Versions: 1 2 3 4 5 6 7 8 9 10 11 12 13 14 15 16 17 18 19 20 21 22 23 24 25 26 27 28 29 30 31 32 33 34 35 36 37 38 39 40 41 42 43 44 45 46 47 48 49 50
000
ASUS43 KIWX 220800
RWRIWX

KIWX WEATHER ROUNDUP
NATIONAL WEATHER SERVICE NORTHERN INDIANA
400 AM EDT THU JUN 22 2017

NOTE: "FAIR" INDICATES FEW OR NO CLOUDS BELOW 12,000 FEET WITH NO
SIGNIFICANT WEATHER AND/OR OBSTRUCTIONS TO VISIBILITY.

* THESE STATIONS ARE NOT UNDER NWS QUALITY CONTROL. THEY ALSO MAY NOT
  REPORT WEATHER SUCH AS PRECIPITATION OR FOG.

INZ001>027-220900-
NORTHERN INDIANA

CITY           SKY/WX    TMP DP  RH WIND       PRES   REMARKS
GARY*          CLOUDY    78  68  69 S9        29.86S
MICHIGAN CITY* CLOUDY    72  63  73 S9        29.87S
KNOX*          CLOUDY    72  57  60 S9        29.89S
SOUTH BEND     MOCLDY    71  61  70 S9        29.89F
GOSHEN         PTCLDY    72  58  61 SE9       29.91F
MONTICELLO*    CLOUDY    74  68  80 SW10      29.92S
FORT WAYNE     PTCLDY    69  62  78 S7        29.94F
PERU/GRISSOM   MOCLDY    74  71  91 SW14      29.92S

$$
INZ028>050-220900-
CENTRAL INDIANA

CITY           SKY/WX    TMP DP  RH WIND       PRES   REMARKS
LAFAYETTE      MOCLDY    74  69  85 SW9       29.93R
KOKOMO*        MOCLDY    76  70  82 SW15      29.96R
MUNCIE*        PTCLDY    76  69  79 SW7       29.97S
INDIANAPOLIS   PTCLDY    73  68  84 SW10      29.97S

$$
MIZ043>046-050>051-056>058-064>065-071>073-077>080-220900-
SOUTHWEST LOWER MICHIGAN

CITY           SKY/WX    TMP DP  RH WIND       PRES   REMARKS
BATTLE CREEK   PTCLDY    66  55  67 S8        29.91F
BENTON HARBOR  PTCLDY    70  57  63 SE7       29.86F
COLDWATER*     CLOUDY    66  52  59 SE7       29.93S
HILLSDALE*     PTCLDY    63  52  67 SE6       29.94S
HOLLAND        PTCLDY    65  55  70 S7        29.86F
GRAND RAPIDS   PTCLDY    64  56  75 S8        29.87F
KALAMAZOO      MOCLDY    67  54  63 S5        29.90F
STURGIS*       MOCLDY    67  56  67 SE8       29.91F
THREE RIVERS*  CLOUDY    68  55  63 S7        29.91S

$$
OHZ001>008-015>018-024>025-220900-
NORTHWEST OHIO

CITY           SKY/WX    TMP DP  RH WIND       PRES   REMARKS
DEFIANCE       MOCLDY    66  52  60 CALM      29.94F
FINDLAY        MOCLDY    68  55  63 SE6       29.94F
TOLEDO EXPRESS PTCLDY    62  53  72 CALM      29.94F
TOLEDO METCALF CLOUDY    64  55  72 E3        29.96S
LIMA           CLOUDY    68  62  81 S9        29.96S

$$
AND FOR LAKE MICHIGAN COASTAL AND OPEN LAKE BUOY OBSERVATIONS

STATION/POSITION TEMP    WIND        PRES    VSBY  WAVE
                 AIR SEA DIR/SP/G                  HT/PER
                 (F)     (DEG/KT/KT) (MB)    (MI)  (FT/S)
CALUMET HARBOR    75     190/  5/  9 1010.2F
MICHIGAN CITY     74     150/ 11/ 12   N/A
BURNS HARBOR      74     180/  9/ 14 1011.5S
SOUTH LAKE BUOY   66 61  130/ 12/ 14 1010.2
4 MI NW BRIDGMAN  71 69  180/  8/ 10 1010.8F         1/ 2
MICHIGAN CITY     72 68  180/ 12/ 14   N/A           1/ 2

$$
&&



USA.gov is the U.S. government's official web portal to all federal, state and local government web resources and services.